TimeEST,TemperatureF,Dew PointF,Humidity,Sea Level PressureIn,VisibilityMPH,Wind Direction,Wind SpeedMPH,Gust SpeedMPH,PrecipitationIn,Events,Conditions,WindDirDegrees,DateUTC
12:51 AM,50.0,48.0,93,30.05,8.0,SW,6.9,-,N/A,,Clear,220,2012-12-09 05:51:00
1:51 AM,50.0,48.0,93,30.06,7.0,SSW,6.9,-,N/A,,Clear,210,2012-12-09 06:51:00
2:51 AM,48.0,46.0,93,30.07,6.0,South,5.8,-,N/A,,Clear,190,2012-12-09 07:51:00
3:51 AM,46.9,46.0,97,30.07,4.0,SSW,6.9,-,N/A,,Clear,210,2012-12-09 08:51:00
4:51 AM,48.9,46.9,93,30.07,4.0,South,4.6,-,N/A,,Clear,190,2012-12-09 09:51:00
5:51 AM,50.0,50.0,100,30.09,5.0,Calm,Calm,-,N/A,,Overcast,0,2012-12-09 10:51:00
6:51 AM,53.1,51.1,93,30.11,6.0,SSW,3.5,-,N/A,,Overcast,200,2012-12-09 11:51:00
7:51 AM,53.1,52.0,96,30.12,5.0,Calm,Calm,-,N/A,,Overcast,0,2012-12-09 12:51:00
8:51 AM,55.0,53.1,93,30.14,3.0,SSW,5.8,-,0.02,Rain,Light Rain,200,2012-12-09 13:51:00
8:58 AM,55.4,53.6,94,30.14,2.5,South,5.8,-,0.02,Rain,Light Rain,190,2012-12-09 13:58:00
9:06 AM,55.4,53.6,94,30.14,4.0,SSW,4.6,-,0.02,Rain,Light Rain,200,2012-12-09 14:06:00
9:51 AM,57.9,55.9,93,30.14,5.0,SSW,5.8,-,0.03,,Mostly Cloudy,200,2012-12-09 14:51:00
10:51 AM,63.0,57.9,84,30.13,9.0,SSW,6.9,-,N/A,,Scattered Clouds,200,2012-12-09 15:51:00
11:51 AM,64.0,57.0,78,30.11,10.0,SW,6.9,-,N/A,,Scattered Clouds,220,2012-12-09 16:51:00
12:51 PM,64.9,57.0,75,30.09,10.0,SW,9.2,-,N/A,,Overcast,220,2012-12-09 17:51:00
1:51 PM,66.0,57.9,75,30.08,10.0,SW,6.9,-,N/A,,Overcast,220,2012-12-09 18:51:00
2:51 PM,69.8,59.0,68,30.07,10.0,South,6.9,-,N/A,,Mostly Cloudy,190,2012-12-09 19:51:00
3:51 PM,66.0,57.0,73,30.08,10.0,South,5.8,-,N/A,,Mostly Cloudy,190,2012-12-09 20:51:00
4:51 PM,64.9,57.0,75,30.08,10.0,South,4.6,-,N/A,,Scattered Clouds,180,2012-12-09 21:51:00
5:51 PM,64.0,57.0,78,30.08,10.0,South,3.5,-,N/A,,Overcast,170,2012-12-09 22:51:00
6:51 PM,63.0,55.9,78,30.08,10.0,SSE,8.1,-,N/A,,Mostly Cloudy,160,2012-12-09 23:51:00
7:51 PM,62.1,55.0,78,30.07,10.0,South,6.9,-,N/A,,Overcast,170,2012-12-10 00:51:00
8:51 PM,62.1,54.0,75,30.05,10.0,South,10.4,-,N/A,,Clear,180,2012-12-10 01:51:00
9:51 PM,61.0,54.0,78,30.04,10.0,South,8.1,-,N/A,,Mostly Cloudy,190,2012-12-10 02:51:00
10:07 PM,60.8,53.6,77,30.05,10.0,South,8.1,-,N/A,,Partly Cloudy,190,2012-12-10 03:07:00
10:51 PM,62.1,55.9,80,30.02,10.0,South,11.5,-,N/A,,Clear,180,2012-12-10 03:51:00
11:51 PM,62.1,57.9,86,30.01,10.0,South,10.4,-,N/A,,Partly Cloudy,180,2012-12-10 04:51:00